• en Belgique
  • Liste des pays
  • À 7 jours
  • Température de l'eau
  • Carte satellitaire
  • Carte météo
  • Widgets météo
  • user-avatar
    Se connecter

    Météo par heure à Benguela

    Ce jour, 20 Octobre, Vendredi

    Heure Température Précipitation Vent Pression Humidité
    00:00 +27°C° 0 mm 2 m/s 759 mmHg 83%
    01:00 +26°C° 0 mm 1 m/s 759 mmHg 85%
    02:00 +26°C° 0 mm 1 m/s 759 mmHg 86%
    03:00 +26°C° 0 mm 1 m/s 759 mmHg 86%
    04:00 +26°C° 0 mm 1 m/s 759 mmHg 86%
    05:00 +26°C° 0 mm 1 m/s 759 mmHg 85%
    06:00 +26°C° 0 mm 1 m/s 760 mmHg 83%
    07:00 +27°C° 0 mm 1 m/s 760 mmHg 81%
    08:00 +29°C° 0 mm 1 m/s 760 mmHg 71%
    09:00 +31°C° 0 mm 2 m/s 760 mmHg 60%
    10:00 +34°C° 0 mm 2 m/s 760 mmHg 50%
    11:00 +35°C° 0 mm 3 m/s 759 mmHg 49%
    12:00 +35°C° 0 mm 3 m/s 759 mmHg 49%
    13:00 +36°C° 0 mm 4 m/s 758 mmHg 48%
    14:00 +35°C° 0 mm 4 m/s 758 mmHg 50%
    15:00 +34°C° 0 mm 4 m/s 758 mmHg 53%
    16:00 +33°C° 0 mm 4 m/s 757 mmHg 55%
    17:00 +32°C° 0 mm 4 m/s 758 mmHg 60%
    18:00 +30°C° 0 mm 3 m/s 758 mmHg 66%
    19:00 +28°C° 0 mm 3 m/s 759 mmHg 71%
    20:00 +28°C° 0 mm 3 m/s 759 mmHg 72%
    21:00 +28°C° 0 mm 3 m/s 760 mmHg 73%
    22:00 +28°C° 0 mm 3 m/s 761 mmHg 73%
    23:00 +27°C° 0 mm 3 m/s 760 mmHg 75%

    Demain, 21 Octobre, Samedi

    Heure Température Précipitation Vent Pression Humidité
    00:00 +27°C° 0 mm 3 m/s 760 mmHg 77%
    01:00 +27°C° 0 mm 3 m/s 760 mmHg 78%
    02:00 +27°C° 0 mm 2 m/s 759 mmHg 79%
    03:00 +26°C° 0 mm 2 m/s 759 mmHg 80%
    04:00 +26°C° 0 mm 2 m/s 759 mmHg 80%
    05:00 +27°C° 0 mm 1 m/s 759 mmHg 77%
    06:00 +27°C° 0 mm 1 m/s 759 mmHg 73%
    07:00 +28°C° 0 mm 1 m/s 760 mmHg 70%
    08:00 +30°C° 0 mm 2 m/s 760 mmHg 62%
    09:00 +32°C° 0 mm 2 m/s 760 mmHg 54%
    10:00 +35°C° 0 mm 3 m/s 760 mmHg 46%
    11:00 +36°C° 0 mm 3 m/s 759 mmHg 46%
    12:00 +36°C° 0 mm 3 m/s 758 mmHg 46%
    13:00 +37°C° 0 mm 4 m/s 758 mmHg 46%
    14:00 +35°C° 0 mm 4 m/s 757 mmHg 49%
    15:00 +34°C° 0 mm 4 m/s 757 mmHg 53%
    16:00 +33°C° 0 mm 5 m/s 757 mmHg 56%
    17:00 +30°C° 0 mm 4 m/s 758 mmHg 62%
    18:00 +29°C° 0 mm 3 m/s 759 mmHg 67%
    19:00 +28°C° 0 mm 3 m/s 759 mmHg 72%
    20:00 +27°C° 0 mm 2 m/s 760 mmHg 73%
    21:00 +27°C° 0 mm 2 m/s 760 mmHg 74%
    22:00 +27°C° 0 mm 2 m/s 761 mmHg 75%
    23:00 +27°C° 0 mm 2 m/s 760 mmHg 75%

    Après-demain, 22 Octobre, Dimanche

    Heure Température Précipitation Vent Pression Humidité
    00:00 +27°C° 0 mm 2 m/s 760 mmHg 76%
    01:00 +27°C° 0 mm 1 m/s 760 mmHg 76%
    02:00 +27°C° 0 mm 1 m/s 760 mmHg 76%
    03:00 +27°C° 0 mm 1 m/s 759 mmHg 76%
    04:00 +27°C° 0 mm 1 m/s 759 mmHg 75%
    05:00 +27°C° 0 mm 1 m/s 760 mmHg 74%
    06:00 +28°C° 0 mm 1 m/s 760 mmHg 72%
    07:00 +28°C° 0 mm 1 m/s 760 mmHg 70%
    08:00 +29°C° 0 mm 2 m/s 760 mmHg 65%
    09:00 +31°C° 0 mm 2 m/s 760 mmHg 59%
    10:00 +34°C° 0 mm 2 m/s 760 mmHg 53%
    11:00 +35°C° 0 mm 2 m/s 759 mmHg 51%
    12:00 +36°C° 0 mm 3 m/s 759 mmHg 48%
    13:00 +37°C° 0 mm 3 m/s 758 mmHg 45%
    14:00 +35°C° 0,1 mm 3 m/s 757 mmHg 49%
    15:00 +34°C° 0,1 mm 4 m/s 757 mmHg 53%
    16:00 +33°C° 0,1 mm 4 m/s 756 mmHg 57%
    17:00 +31°C° 0,1 mm 3 m/s 757 mmHg 62%
    18:00 +30°C° 0,1 mm 3 m/s 758 mmHg 67%
    19:00 +28°C° 0,1 mm 3 m/s 758 mmHg 72%
    20:00 +28°C° 0 mm 2 m/s 759 mmHg 72%
    21:00 +28°C° 0 mm 2 m/s 759 mmHg 71%
    22:00 +28°C° 0 mm 2 m/s 759 mmHg 71%
    23:00 +28°C° 0 mm 2 m/s 759 mmHg 72%

    23 Octobre, Lundi

    Heure Température Précipitation Vent Pression Humidité
    00:00 +28°C° 0 mm 2 m/s 759 mmHg 72%
    01:00 +28°C° 0 mm 1 m/s 758 mmHg 73%
    02:00 +27°C° 0 mm 1 m/s 758 mmHg 74%
    03:00 +27°C° 0 mm 1 m/s 758 mmHg 75%
    04:00 +27°C° 0 mm 1 m/s 758 mmHg 76%
    05:00 +28°C° 0 mm 1 m/s 758 mmHg 73%
    06:00 +28°C° 0 mm 1 m/s 758 mmHg 70%
    07:00 +29°C° 0 mm 1 m/s 758 mmHg 67%
    08:00 +31°C° 0 mm 2 m/s 758 mmHg 61%
    09:00 +34°C° 0 mm 2 m/s 758 mmHg 55%
    10:00 +36°C° 0 mm 2 m/s 758 mmHg 49%
    11:00 +36°C° 0 mm 3 m/s 757 mmHg 48%
    12:00 +37°C° 0 mm 3 m/s 757 mmHg 47%
    13:00 +37°C° 0 mm 4 m/s 756 mmHg 47%
    14:00 +36°C° 0,2 mm 4 m/s 756 mmHg 51%
    15:00 +35°C° 0,2 mm 4 m/s 756 mmHg 56%
    16:00 +33°C° 0,2 mm 4 m/s 756 mmHg 60%
    17:00 +31°C° 1,5 mm 3 m/s 756 mmHg 66%
    18:00 +30°C° 1,5 mm 2 m/s 757 mmHg 72%
    19:00 +28°C° 1,5 mm 1 m/s 758 mmHg 78%
    20:00 +28°C° 1 mm 1 m/s 758 mmHg 79%
    21:00 +28°C° 1 mm 1 m/s 758 mmHg 80%
    22:00 +28°C° 1 mm 1 m/s 759 mmHg 81%
    23:00 +28°C° 0,8 mm 1 m/s 758 mmHg 81%

    24 Octobre, Mardi

    Heure Température Précipitation Vent Pression Humidité
    00:00 +28°C° 0,8 mm 1 m/s 758 mmHg 82%
    01:00 +28°C° 0,8 mm 1 m/s 758 mmHg 82%
    02:00 +28°C° 0,7 mm 1 m/s 758 mmHg 83%
    03:00 +28°C° 0,7 mm 1 m/s 757 mmHg 84%
    04:00 +28°C° 0,7 mm 1 m/s 757 mmHg 85%
    05:00 +28°C° 1,4 mm 1 m/s 758 mmHg 86%
    06:00 +28°C° 1,4 mm 2 m/s 759 mmHg 88%
    07:00 +27°C° 1,4 mm 2 m/s 759 mmHg 89%
    08:00 +28°C° 0,4 mm 2 m/s 759 mmHg 85%
    09:00 +29°C° 0,4 mm 2 m/s 759 mmHg 81%
    10:00 +30°C° 0,4 mm 3 m/s 759 mmHg 77%
    11:00 +31°C° 0,1 mm 2 m/s 758 mmHg 74%
    12:00 +31°C° 0,1 mm 2 m/s 757 mmHg 72%
    13:00 +32°C° 0,1 mm 2 m/s 757 mmHg 70%
    14:00 +32°C° 0 mm 2 m/s 756 mmHg 70%
    15:00 +32°C° 0 mm 2 m/s 756 mmHg 71%
    16:00 +31°C° 0 mm 2 m/s 756 mmHg 72%
    17:00 +31°C° 0,3 mm 2 m/s 757 mmHg 76%
    18:00 +30°C° 0,3 mm 2 m/s 757 mmHg 80%
    19:00 +29°C° 0,3 mm 2 m/s 758 mmHg 84%
    20:00 +29°C° 0,3 mm 2 m/s 758 mmHg 84%
    21:00 +29°C° 0,3 mm 2 m/s 759 mmHg 84%
    22:00 +29°C° 0,3 mm 2 m/s 759 mmHg 85%
    23:00 +28°C° 0,2 mm 2 m/s 759 mmHg 86%

    25 Octobre, Mercredi

    Heure Température Précipitation Vent Pression Humidité
    00:00 +28°C° 0,2 mm 2 m/s 759 mmHg 87%
    01:00 +28°C° 0,2 mm 2 m/s 758 mmHg 88%
    02:00 +28°C° 0,1 mm 2 m/s 758 mmHg 89%
    03:00 +28°C° 0,1 mm 2 m/s 758 mmHg 90%
    04:00 +27°C° 0,1 mm 1 m/s 758 mmHg 91%
    05:00 +28°C° 0 mm 1 m/s 758 mmHg 88%
    06:00 +28°C° 0 mm 1 m/s 758 mmHg 86%
    07:00 +29°C° 0 mm 1 m/s 759 mmHg 84%
    08:00 +30°C° 0,2 mm 2 m/s 759 mmHg 76%
    09:00 +32°C° 0,2 mm 2 m/s 759 mmHg 68%
    10:00 +35°C° 0,2 mm 3 m/s 759 mmHg 61%
    11:00 +36°C° 0,2 mm 3 m/s 758 mmHg 59%
    12:00 +36°C° 0,2 mm 4 m/s 757 mmHg 57%
    13:00 +37°C° 0,2 mm 4 m/s 757 mmHg 56%
    14:00 +36°C° 0,1 mm 4 m/s 756 mmHg 60%
    15:00 +34°C° 0,1 mm 4 m/s 756 mmHg 64%
    16:00 +33°C° 0,1 mm 4 m/s 756 mmHg 68%
    17:00 +33°C° 0,1 mm 3 m/s 757 mmHg 71%
    18:00 +31°C° 0,1 mm 3 m/s 757 mmHg 73%
    19:00 +30°C° 0,1 mm 2 m/s 758 mmHg 76%
    20:00 +30°C° 0 mm 2 m/s 758 mmHg 77%
    21:00 +29°C° 0 mm 3 m/s 758 mmHg 79%
    22:00 +29°C° 0 mm 3 m/s 759 mmHg 80%
    23:00 +28°C° 0,3 mm 2 m/s 758 mmHg 83%
    Voir plus